Location: Ballingbuur
(53.0000°N, 5.7667°E)
Time: 20:57:52
(UTC+00:00)

ALOS - Pass Details

Date: 29 November 2020
Orbit: 682 x 686 km, 97.9° (Epoch: 25 January)

Event Time Altitude Azimuth Distance (km) Brightness Sun altitude
Rises 03:45:53 0° 19° (NNE) 3,068 5.9 -31.9°
Reaches altitude 10° 03:48:16 10° 26° (NNE) 2,147 5.1 -31.6°
Maximum altitude 03:52:43 42° 97° (E) 986 3.4 -30.9°
Enters shadow 03:53:20 40° 118° (ESE) 1,019 3.4 -30.8°
